CES6335 ZSCN-ZPPP

Flight info

Callsign CES6335
Flight time 1h 57m
Altitude 34100
Route BIRIR H165 P490 A581 XISLI
Aircraft A320/M-SDE1FGHIJ1RWXYZ/LB1

Departure

Time 2026-05-06 04:31
Airport Nanchang Changbei International Airport (ZSCN)

Arrival

Time 2026-05-06 06:28
Airport Kunming Changshui International Airport (ZPPP)
Time Latitude Longitude Altitude Speed Heading
2026-05-06 04:00 28.86459 115.91433 153 ft 0 kts 113°
2026-05-06 04:19 28.86459 115.91432 153 ft 0 kts 113°
2026-05-06 04:19 28.86464 115.91419 153 ft 2 kts 112°
2026-05-06 04:20 28.86470 115.91403 153 ft 2 kts 113°
2026-05-06 04:20 28.86474 115.91391 153 ft 0 kts 113°
2026-05-06 04:20 28.86477 115.91376 153 ft 2 kts 73°
2026-05-06 04:20 28.86468 115.91361 153 ft 1 kts 32°
2026-05-06 04:21 28.86463 115.91358 153 ft 1 kts 18°
2026-05-06 04:21 28.86459 115.91357 153 ft 0 kts 22°
2026-05-06 04:23 28.86466 115.91360 153 ft 2 kts 23°
2026-05-06 04:23 28.86493 115.91374 153 ft 1 kts 23°
2026-05-06 04:23 28.86507 115.91381 153 ft 4 kts 25°
2026-05-06 04:24 28.86557 115.91405 153 ft 10 kts 22°
2026-05-06 04:24 28.86641 115.91446 153 ft 15 kts 23°
2026-05-06 04:24 28.86749 115.91498 153 ft 17 kts 23°
2026-05-06 04:24 28.86833 115.91527 153 ft 8 kts 328°
2026-05-06 04:25 28.86864 115.91456 153 ft 11 kts 293°
2026-05-06 04:25 28.86899 115.91362 153 ft 14 kts 293°
2026-05-06 04:25 28.86944 115.91245 153 ft 17 kts 293°
2026-05-06 04:25 28.86997 115.91103 153 ft 20 kts 293°
2026-05-06 04:26 28.87056 115.90944 153 ft 22 kts 292°
2026-05-06 04:26 28.87101 115.90826 153 ft 9 kts 293°
2026-05-06 04:26 28.87157 115.90800 153 ft 11 kts 21°
2026-05-06 04:26 28.87244 115.90844 153 ft 15 kts 24°
2026-05-06 04:27 28.87356 115.90897 153 ft 18 kts 22°
2026-05-06 04:27 28.87484 115.90959 153 ft 20 kts 22°
2026-05-06 04:27 28.87624 115.91029 153 ft 22 kts 21°
2026-05-06 04:27 28.87756 115.91091 152 ft 11 kts 22°
2026-05-06 04:28 28.87825 115.91090 152 ft 10 kts 319°
2026-05-06 04:28 28.87846 115.91047 152 ft 0 kts 292°
2026-05-06 04:28 28.87847 115.91043 152 ft 1 kts 292°
2026-05-06 04:29 28.87858 115.91013 152 ft 6 kts 292°
2026-05-06 04:29 28.87858 115.90941 152 ft 12 kts 237°
2026-05-06 04:29 28.87811 115.90905 153 ft 0 kts 203°
2026-05-06 04:30 28.87807 115.90903 153 ft 1 kts 203°
2026-05-06 04:30 28.87716 115.90859 153 ft 42 kts 203°
2026-05-06 04:30 28.87207 115.90612 153 ft 112 kts 203°
2026-05-06 04:30 28.86310 115.90179 243 ft 156 kts 203°
2026-05-06 04:31 28.85299 115.89681 803 ft 157 kts 204°
2026-05-06 04:31 28.84289 115.89159 1408 ft 160 kts 203°
2026-05-06 04:31 28.83269 115.88650 1873 ft 163 kts 203°
2026-05-06 04:31 28.82181 115.88110 2176 ft 174 kts 204°
2026-05-06 04:32 28.81030 115.87529 2524 ft 184 kts 204°
2026-05-06 04:32 28.79799 115.86912 2821 ft 198 kts 203°
2026-05-06 04:32 28.78473 115.86274 3097 ft 214 kts 203°
2026-05-06 04:32 28.77023 115.85577 3409 ft 232 kts 202°
2026-05-06 04:33 28.75514 115.84739 3812 ft 248 kts 214°
2026-05-06 04:33 28.74251 115.83290 4188 ft 265 kts 237°
2026-05-06 04:33 28.73418 115.81369 4778 ft 271 kts 244°
2026-05-06 04:33 28.72631 115.79389 5468 ft 273 kts 244°
2026-05-06 04:34 28.71827 115.77410 6148 ft 274 kts 244°
2026-05-06 04:34 28.71008 115.75410 6781 ft 278 kts 244°
2026-05-06 04:34 28.70157 115.73405 7439 ft 280 kts 243°
2026-05-06 04:34 28.69297 115.71377 8106 ft 283 kts 243°
2026-05-06 04:35 28.68439 115.69347 8770 ft 284 kts 244°
2026-05-06 04:35 28.67578 115.67287 9412 ft 286 kts 243°
2026-05-06 04:35 28.66709 115.65223 10016 ft 288 kts 243°
2026-05-06 04:35 28.65785 115.63168 10455 ft 295 kts 238°
2026-05-06 04:36 28.64568 115.61189 10705 ft 309 kts 230°
2026-05-06 04:36 28.63046 115.59328 10913 ft 322 kts 225°
2026-05-06 04:36 28.61403 115.57485 11277 ft 330 kts 224°
2026-05-06 04:36 28.59730 115.55627 11799 ft 333 kts 224°
2026-05-06 04:37 28.58051 115.53759 12407 ft 335 kts 224°
2026-05-06 04:37 28.56362 115.51877 13007 ft 335 kts 224°
2026-05-06 04:37 28.54660 115.49975 13552 ft 339 kts 225°
2026-05-06 04:37 28.52958 115.48070 14092 ft 341 kts 225°
2026-05-06 04:38 28.51248 115.46157 14604 ft 343 kts 225°
2026-05-06 04:38 28.49521 115.44226 15122 ft 345 kts 225°
2026-05-06 04:38 28.47784 115.42284 15593 ft 348 kts 225°
2026-05-06 04:38 28.46213 115.40168 16067 ft 350 kts 238°
2026-05-06 04:39 28.45147 115.37657 16533 ft 351 kts 252°
2026-05-06 04:39 28.44609 115.34943 16996 ft 353 kts 259°
2026-05-06 04:39 28.44212 115.32128 17457 ft 355 kts 260°
2026-05-06 04:39 28.43830 115.29305 17911 ft 355 kts 260°
2026-05-06 04:40 28.43442 115.26471 18331 ft 358 kts 260°
2026-05-06 04:40 28.43051 115.23642 18765 ft 360 kts 260°
2026-05-06 04:40 28.42654 115.20799 19145 ft 362 kts 260°
2026-05-06 04:40 28.42253 115.17937 19582 ft 364 kts 260°
2026-05-06 04:41 28.41849 115.15070 19997 ft 364 kts 260°
2026-05-06 04:41 28.41442 115.12192 20369 ft 367 kts 260°
2026-05-06 04:41 28.41026 115.09274 20774 ft 369 kts 260°
2026-05-06 04:41 28.40612 115.06363 21192 ft 371 kts 259°
2026-05-06 04:42 28.40195 115.03447 21609 ft 372 kts 259°
2026-05-06 04:42 28.39776 115.00514 21999 ft 374 kts 259°
2026-05-06 04:42 28.39353 114.97569 22358 ft 377 kts 259°
2026-05-06 04:42 28.38927 114.94602 22756 ft 378 kts 259°
2026-05-06 04:43 28.38497 114.91621 23138 ft 380 kts 260°
2026-05-06 04:43 28.38066 114.88631 23505 ft 383 kts 260°
2026-05-06 04:43 28.37633 114.85630 23881 ft 384 kts 260°
2026-05-06 04:43 28.37198 114.82613 24230 ft 386 kts 260°
2026-05-06 04:44 28.36759 114.79569 24566 ft 389 kts 260°
2026-05-06 04:44 28.36316 114.76510 24931 ft 390 kts 260°
2026-05-06 04:44 28.35871 114.73441 25299 ft 392 kts 260°
2026-05-06 04:44 28.35425 114.70370 25646 ft 393 kts 260°
2026-05-06 04:45 28.34976 114.67289 25977 ft 395 kts 261°
2026-05-06 04:45 28.34524 114.64186 26306 ft 397 kts 261°
2026-05-06 04:45 28.34070 114.61073 26630 ft 399 kts 261°
2026-05-06 04:45 28.33612 114.57945 26947 ft 400 kts 261°
2026-05-06 04:46 28.33152 114.54794 27255 ft 402 kts 261°
2026-05-06 04:46 28.32691 114.51647 27559 ft 404 kts 261°
2026-05-06 04:46 28.32224 114.48462 27854 ft 406 kts 261°
2026-05-06 04:46 28.31756 114.45272 28115 ft 408 kts 261°
2026-05-06 04:47 28.31284 114.42069 28393 ft 410 kts 261°
2026-05-06 04:47 28.30808 114.38851 28675 ft 412 kts 261°
2026-05-06 04:47 28.30383 114.35612 28939 ft 414 kts 263°
2026-05-06 04:47 28.29998 114.32317 29239 ft 415 kts 263°
2026-05-06 04:48 28.29614 114.28993 29530 ft 416 kts 263°
2026-05-06 04:48 28.29230 114.25677 29788 ft 418 kts 263°
2026-05-06 04:48 28.28845 114.22357 30059 ft 420 kts 263°
2026-05-06 04:48 28.28458 114.19018 30312 ft 421 kts 263°
2026-05-06 04:49 28.28068 114.15670 30554 ft 423 kts 263°
2026-05-06 04:49 28.27680 114.12352 30800 ft 424 kts 263°
2026-05-06 04:49 28.27293 114.09023 31064 ft 424 kts 263°
2026-05-06 04:49 28.26904 114.05697 31303 ft 425 kts 263°
2026-05-06 04:50 28.26511 114.02361 31629 ft 423 kts 263°
2026-05-06 04:50 28.26122 113.99047 31960 ft 421 kts 263°
2026-05-06 04:50 28.25732 113.95738 32245 ft 421 kts 263°
2026-05-06 04:50 28.25338 113.92417 32469 ft 421 kts 263°
2026-05-06 04:51 28.24947 113.89111 32673 ft 422 kts 264°
2026-05-06 04:51 28.24554 113.85787 32901 ft 422 kts 263°
2026-05-06 04:51 28.24161 113.82472 33144 ft 421 kts 263°
2026-05-06 04:51 28.23766 113.79173 33361 ft 422 kts 264°
2026-05-06 04:52 28.23370 113.75859 33527 ft 422 kts 264°
2026-05-06 04:52 28.22974 113.72547 33677 ft 423 kts 264°
2026-05-06 04:52 28.22574 113.69220 33846 ft 423 kts 264°
2026-05-06 04:52 28.22172 113.65892 33958 ft 424 kts 264°
2026-05-06 04:53 28.21770 113.62572 33961 ft 423 kts 264°
2026-05-06 04:53 28.20962 113.55928 33966 ft 422 kts 264°
2026-05-06 04:54 28.20154 113.49313 33966 ft 421 kts 263°
2026-05-06 04:54 28.19343 113.42700 33965 ft 420 kts 264°
2026-05-06 04:55 28.18535 113.36091 33967 ft 421 kts 263°
2026-05-06 04:55 28.17719 113.29458 33964 ft 421 kts 263°
2026-05-06 04:56 28.16901 113.22819 33959 ft 420 kts 263°
2026-05-06 04:56 28.16085 113.16215 33958 ft 420 kts 263°
2026-05-06 04:57 28.15264 113.09621 33951 ft 420 kts 263°
2026-05-06 04:57 28.14439 113.03002 33947 ft 419 kts 263°
2026-05-06 04:58 28.13858 112.96382 33943 ft 419 kts 268°
2026-05-06 04:58 28.13855 112.89717 33939 ft 418 kts 273°
2026-05-06 04:59 28.14226 112.83073 33941 ft 417 kts 274°
2026-05-06 04:59 28.14609 112.76438 33935 ft 417 kts 274°
2026-05-06 05:00 28.14995 112.69741 33931 ft 417 kts 274°
2026-05-06 05:00 28.15370 112.63148 33936 ft 416 kts 274°
2026-05-06 05:01 28.15747 112.56500 33928 ft 417 kts 274°
2026-05-06 05:01 28.16114 112.49904 33925 ft 417 kts 274°
2026-05-06 05:02 28.16482 112.43317 33923 ft 417 kts 274°
2026-05-06 05:02 28.16843 112.36714 33920 ft 417 kts 274°
2026-05-06 05:03 28.17204 112.30087 33924 ft 417 kts 273°
2026-05-06 05:03 28.16901 112.23500 33924 ft 417 kts 264°
2026-05-06 05:04 28.16034 112.16958 33929 ft 417 kts 259°
2026-05-06 05:04 28.14608 112.10535 33937 ft 419 kts 255°
2026-05-06 05:05 28.12954 112.04173 33943 ft 418 kts 255°
2026-05-06 05:05 28.11279 111.97814 33952 ft 418 kts 255°
2026-05-06 05:06 28.09597 111.91448 33955 ft 419 kts 255°
2026-05-06 05:06 28.07912 111.85079 33966 ft 419 kts 255°
2026-05-06 05:07 28.06220 111.78701 33979 ft 419 kts 255°
2026-05-06 05:07 28.04529 111.72338 33994 ft 419 kts 255°
2026-05-06 05:08 28.02836 111.65973 33996 ft 419 kts 255°
2026-05-06 05:08 28.01142 111.59620 33997 ft 419 kts 255°
2026-05-06 05:09 27.99447 111.53281 33992 ft 419 kts 255°
2026-05-06 05:09 27.97876 111.46882 33986 ft 420 kts 257°
2026-05-06 05:10 27.96351 111.40448 33974 ft 420 kts 257°
2026-05-06 05:10 27.94820 111.34028 33964 ft 421 kts 256°
2026-05-06 05:11 27.93273 111.27577 33946 ft 421 kts 256°
2026-05-06 05:11 27.91725 111.21149 33932 ft 421 kts 256°
2026-05-06 05:12 27.90172 111.14719 33943 ft 421 kts 256°
2026-05-06 05:12 27.88612 111.08267 33962 ft 421 kts 256°
2026-05-06 05:13 27.87050 111.01827 33982 ft 421 kts 256°
2026-05-06 05:13 27.85488 110.95397 33985 ft 420 kts 256°
2026-05-06 05:14 27.83925 110.88980 33978 ft 421 kts 256°
2026-05-06 05:14 27.82354 110.82538 33985 ft 421 kts 257°
2026-05-06 05:15 27.80784 110.76112 33988 ft 421 kts 256°
2026-05-06 05:15 27.79212 110.69694 33987 ft 421 kts 256°
2026-05-06 05:16 27.77637 110.63288 33985 ft 420 kts 256°
2026-05-06 05:16 27.76059 110.56885 33975 ft 421 kts 257°
2026-05-06 05:17 27.74477 110.50465 33965 ft 421 kts 257°
2026-05-06 05:17 27.72891 110.44057 33969 ft 420 kts 257°
2026-05-06 05:18 27.71303 110.37652 33975 ft 420 kts 257°
2026-05-06 05:18 27.69708 110.31231 33975 ft 420 kts 256°
2026-05-06 05:19 27.68114 110.24827 33971 ft 420 kts 256°
2026-05-06 05:19 27.66518 110.18429 33964 ft 420 kts 256°
2026-05-06 05:20 27.64926 110.12051 33953 ft 420 kts 256°
2026-05-06 05:20 27.63327 110.05657 33944 ft 420 kts 257°
2026-05-06 05:21 27.61725 109.99265 33935 ft 420 kts 257°
2026-05-06 05:21 27.60121 109.92882 33926 ft 420 kts 257°
2026-05-06 05:22 27.58510 109.86496 33921 ft 419 kts 256°
2026-05-06 05:22 27.56898 109.80129 33915 ft 419 kts 256°
2026-05-06 05:23 27.55272 109.73749 33911 ft 419 kts 257°
2026-05-06 05:23 27.52536 109.64303 33934 ft 420 kts 253°
2026-05-06 05:24 27.50591 109.58042 33952 ft 420 kts 253°
2026-05-06 05:24 27.48640 109.51790 33976 ft 419 kts 254°
2026-05-06 05:25 27.46698 109.45575 33988 ft 419 kts 254°
2026-05-06 05:25 27.44770 109.39337 33977 ft 418 kts 254°
2026-05-06 05:26 27.42847 109.33081 33972 ft 418 kts 253°
2026-05-06 05:26 27.40921 109.26840 33963 ft 417 kts 253°
2026-05-06 05:27 27.38999 109.20639 33959 ft 417 kts 253°
2026-05-06 05:27 27.37072 109.14423 33958 ft 418 kts 254°
2026-05-06 05:28 27.35135 109.08185 33962 ft 418 kts 254°
2026-05-06 05:28 27.33196 109.01955 33961 ft 417 kts 253°
2026-05-06 05:29 27.31265 108.95767 33965 ft 416 kts 254°
2026-05-06 05:29 27.29333 108.89580 33967 ft 415 kts 253°
2026-05-06 05:30 27.27406 108.83416 33962 ft 415 kts 253°
2026-05-06 05:30 27.25475 108.77249 33962 ft 415 kts 253°
2026-05-06 05:31 27.23539 108.71084 33965 ft 415 kts 253°
2026-05-06 05:31 27.21600 108.64918 33982 ft 415 kts 253°
2026-05-06 05:32 27.19659 108.58760 33995 ft 415 kts 253°
2026-05-06 05:32 27.17719 108.52607 34007 ft 414 kts 253°
2026-05-06 05:33 27.15775 108.46461 34016 ft 414 kts 253°
2026-05-06 05:33 27.13833 108.40324 34016 ft 413 kts 253°
2026-05-06 05:34 27.11885 108.34179 34014 ft 414 kts 253°
2026-05-06 05:34 27.09893 108.27909 34005 ft 415 kts 253°
2026-05-06 05:35 27.07923 108.21721 34004 ft 415 kts 253°
2026-05-06 05:35 27.05952 108.15536 34001 ft 415 kts 253°
2026-05-06 05:36 27.03996 108.09406 34002 ft 413 kts 253°
2026-05-06 05:36 27.02036 108.03276 33997 ft 413 kts 253°
2026-05-06 05:37 27.00081 107.97164 33990 ft 413 kts 253°
2026-05-06 05:37 26.98115 107.91039 33995 ft 413 kts 253°
2026-05-06 05:38 26.96146 107.84937 33986 ft 414 kts 253°
2026-05-06 05:38 26.94171 107.78818 33994 ft 414 kts 253°
2026-05-06 05:39 26.92198 107.72710 33989 ft 413 kts 253°
2026-05-06 05:39 26.90225 107.66625 33996 ft 412 kts 253°
2026-05-06 05:40 26.88242 107.60505 34009 ft 413 kts 253°
2026-05-06 05:40 26.86259 107.54397 34030 ft 413 kts 253°
2026-05-06 05:41 26.84278 107.48297 34029 ft 414 kts 253°
2026-05-06 05:41 26.82286 107.42176 34025 ft 414 kts 253°
2026-05-06 05:42 26.80301 107.36081 34022 ft 413 kts 252°
2026-05-06 05:42 26.78303 107.29958 34026 ft 414 kts 252°
2026-05-06 05:43 26.76306 107.23851 34044 ft 414 kts 252°
2026-05-06 05:43 26.74309 107.17749 34037 ft 414 kts 252°
2026-05-06 05:44 26.72310 107.11644 34027 ft 414 kts 252°
2026-05-06 05:44 26.70305 107.05529 34031 ft 414 kts 252°
2026-05-06 05:45 26.68308 106.99455 34027 ft 413 kts 252°
2026-05-06 05:45 26.66301 106.93394 34031 ft 413 kts 252°
2026-05-06 05:46 26.64311 106.87322 34037 ft 413 kts 253°
2026-05-06 05:46 26.62443 106.81192 34051 ft 413 kts 253°
2026-05-06 05:47 26.60579 106.75072 34054 ft 413 kts 253°
2026-05-06 05:47 26.58703 106.68946 34051 ft 413 kts 254°
2026-05-06 05:48 26.56964 106.62795 34048 ft 412 kts 255°
2026-05-06 05:48 26.55239 106.56612 34049 ft 413 kts 255°
2026-05-06 05:49 26.53497 106.50412 34051 ft 413 kts 255°
2026-05-06 05:49 26.51749 106.44222 34052 ft 413 kts 255°
2026-05-06 05:50 26.50037 106.38035 34054 ft 412 kts 257°
2026-05-06 05:50 26.48755 106.31700 34059 ft 412 kts 261°
2026-05-06 05:51 26.48044 106.25311 34059 ft 411 kts 266°
2026-05-06 05:51 26.47887 106.18882 34061 ft 411 kts 270°
2026-05-06 05:52 26.47920 106.12422 34061 ft 410 kts 270°
2026-05-06 05:52 26.47958 106.05972 34065 ft 410 kts 270°
2026-05-06 05:53 26.47995 105.99511 34074 ft 411 kts 270°
2026-05-06 05:53 26.48032 105.93068 34074 ft 410 kts 270°
2026-05-06 05:54 26.48064 105.86610 34078 ft 410 kts 270°
2026-05-06 05:54 26.48094 105.80156 34070 ft 409 kts 270°
2026-05-06 05:55 26.48119 105.73704 34069 ft 410 kts 270°
2026-05-06 05:55 26.48140 105.67276 34083 ft 410 kts 270°
2026-05-06 05:56 26.48159 105.60828 34100 ft 410 kts 270°
2026-05-06 05:56 26.48177 105.54405 34115 ft 410 kts 270°
2026-05-06 05:57 26.48190 105.47962 34128 ft 409 kts 270°
2026-05-06 05:57 26.48197 105.41517 34128 ft 408 kts 270°
2026-05-06 05:58 26.48205 105.35095 34129 ft 408 kts 270°
2026-05-06 05:58 26.48209 105.28655 34127 ft 407 kts 270°
2026-05-06 05:59 26.48209 105.22250 34124 ft 408 kts 270°
2026-05-06 05:59 26.48208 105.15846 34123 ft 407 kts 270°
2026-05-06 06:00 26.48203 105.09440 34123 ft 407 kts 269°
2026-05-06 06:00 26.48192 105.03043 34122 ft 407 kts 269°
2026-05-06 06:01 26.48183 104.96648 34127 ft 408 kts 270°
2026-05-06 06:01 26.48172 104.90259 34144 ft 408 kts 270°
2026-05-06 06:02 26.48059 104.83837 34157 ft 408 kts 265°
2026-05-06 06:02 26.47130 104.77522 34172 ft 408 kts 257°
2026-05-06 06:03 26.45277 104.71419 34187 ft 410 kts 249°
2026-05-06 06:03 26.42563 104.65750 34187 ft 413 kts 241°
2026-05-06 06:04 26.39380 104.60305 34187 ft 413 kts 240°
2026-05-06 06:04 26.36197 104.54915 34185 ft 413 kts 240°
2026-05-06 06:05 26.32998 104.49510 34186 ft 413 kts 240°
2026-05-06 06:05 26.29799 104.44116 34179 ft 413 kts 240°
2026-05-06 06:06 26.26594 104.38715 34190 ft 413 kts 240°
2026-05-06 06:06 26.23377 104.33305 34204 ft 413 kts 239°
2026-05-06 06:07 26.20114 104.27819 34225 ft 413 kts 239°
2026-05-06 06:07 26.16831 104.22308 34167 ft 415 kts 239°
2026-05-06 06:08 26.15187 104.19550 33788 ft 414 kts 239°
2026-05-06 06:08 26.13563 104.16828 33224 ft 411 kts 239°
2026-05-06 06:08 26.11956 104.14136 32578 ft 408 kts 239°
2026-05-06 06:08 26.10351 104.11444 31885 ft 408 kts 239°
2026-05-06 06:09 26.08751 104.08761 31140 ft 408 kts 238°
2026-05-06 06:09 26.07179 104.06132 30631 ft 403 kts 238°
2026-05-06 06:09 26.05633 104.03549 30169 ft 397 kts 238°
2026-05-06 06:09 26.04102 104.00991 29702 ft 392 kts 238°
2026-05-06 06:10 26.02593 103.98470 29239 ft 387 kts 237°
2026-05-06 06:10 26.01088 103.95957 28769 ft 382 kts 237°
2026-05-06 06:10 25.99608 103.93493 28302 ft 378 kts 237°
2026-05-06 06:10 25.98140 103.91053 27833 ft 373 kts 238°
2026-05-06 06:11 25.96680 103.88641 27366 ft 370 kts 237°
2026-05-06 06:11 25.95220 103.86272 26890 ft 366 kts 237°
2026-05-06 06:11 25.93766 103.83922 26425 ft 363 kts 237°
2026-05-06 06:11 25.92320 103.81585 25962 ft 360 kts 237°
2026-05-06 06:12 25.90892 103.79275 25509 ft 358 kts 237°
2026-05-06 06:12 25.89434 103.76975 25049 ft 357 kts 234°
2026-05-06 06:12 25.87770 103.74825 24578 ft 356 kts 229°
2026-05-06 06:12 25.85915 103.72900 24111 ft 357 kts 223°
2026-05-06 06:13 25.83916 103.71201 23652 ft 356 kts 219°
2026-05-06 06:13 25.81881 103.69568 23203 ft 355 kts 219°
2026-05-06 06:13 25.79844 103.67947 22747 ft 353 kts 219°
2026-05-06 06:13 25.77820 103.66338 22297 ft 352 kts 219°
2026-05-06 06:14 25.75794 103.64729 21839 ft 351 kts 219°
2026-05-06 06:14 25.73780 103.63128 21381 ft 350 kts 219°
2026-05-06 06:14 25.71783 103.61542 20923 ft 349 kts 219°
2026-05-06 06:14 25.69781 103.59959 20462 ft 348 kts 219°
2026-05-06 06:15 25.67776 103.58376 19993 ft 348 kts 220°
2026-05-06 06:15 25.65781 103.56798 19517 ft 347 kts 220°
2026-05-06 06:15 25.63795 103.55230 19051 ft 345 kts 220°
2026-05-06 06:15 25.61805 103.53658 18567 ft 345 kts 220°
2026-05-06 06:16 25.59813 103.52091 18095 ft 344 kts 220°
2026-05-06 06:16 25.57840 103.50535 17637 ft 343 kts 220°
2026-05-06 06:16 25.55866 103.48977 17185 ft 342 kts 220°
2026-05-06 06:16 25.53899 103.47424 16723 ft 342 kts 220°
2026-05-06 06:17 25.51935 103.45871 16244 ft 342 kts 220°
2026-05-06 06:17 25.49969 103.44326 15772 ft 341 kts 220°
2026-05-06 06:17 25.47994 103.42789 15292 ft 341 kts 221°
2026-05-06 06:17 25.46025 103.41224 14773 ft 341 kts 220°
2026-05-06 06:18 25.44088 103.39691 14507 ft 332 kts 220°
2026-05-06 06:18 25.42212 103.38216 14353 ft 319 kts 219°
2026-05-06 06:18 25.40414 103.36800 14210 ft 307 kts 219°
2026-05-06 06:18 25.38684 103.35445 14059 ft 294 kts 219°
2026-05-06 06:19 25.37033 103.34160 13935 ft 274 kts 219°
2026-05-06 06:19 25.35501 103.32949 13825 ft 260 kts 219°
2026-05-06 06:19 25.34036 103.31773 13699 ft 249 kts 224°
2026-05-06 06:19 25.33049 103.30234 13540 ft 242 kts 255°
2026-05-06 06:20 25.32918 103.28368 13313 ft 245 kts 280°
2026-05-06 06:20 25.33626 103.26624 12942 ft 252 kts 303°
2026-05-06 06:20 25.34742 103.25089 12599 ft 253 kts 305°
2026-05-06 06:20 25.35854 103.23533 12261 ft 253 kts 304°
2026-05-06 06:21 25.36944 103.21975 11914 ft 253 kts 298°
2026-05-06 06:21 25.37478 103.20172 11508 ft 241 kts 265°
2026-05-06 06:21 25.37065 103.18422 11180 ft 232 kts 239°
2026-05-06 06:21 25.35992 103.17111 10849 ft 225 kts 220°
2026-05-06 06:22 25.34760 103.16053 10553 ft 217 kts 220°
2026-05-06 06:22 25.33565 103.15013 10282 ft 215 kts 220°
2026-05-06 06:22 25.32378 103.13975 10000 ft 215 kts 220°
2026-05-06 06:22 25.31188 103.12937 9887 ft 214 kts 220°
2026-05-06 06:23 25.30008 103.11906 9865 ft 214 kts 220°
2026-05-06 06:23 25.28824 103.10871 9804 ft 214 kts 220°
2026-05-06 06:23 25.27637 103.09834 9705 ft 213 kts 220°
2026-05-06 06:23 25.26456 103.08804 9588 ft 212 kts 220°
2026-05-06 06:24 25.25278 103.07774 9459 ft 212 kts 219°
2026-05-06 06:24 25.24105 103.06751 9366 ft 209 kts 220°
2026-05-06 06:24 25.22984 103.05773 9209 ft 198 kts 220°
2026-05-06 06:24 25.21901 103.04829 8932 ft 192 kts 220°
2026-05-06 06:25 25.20873 103.03930 8808 ft 176 kts 220°
2026-05-06 06:25 25.19963 103.03133 8795 ft 153 kts 220°
2026-05-06 06:25 25.18338 103.01712 8476 ft 144 kts 220°
2026-05-06 06:26 25.17543 103.01021 8293 ft 143 kts 220°
2026-05-06 06:26 25.16751 103.00331 8109 ft 142 kts 219°
2026-05-06 06:26 25.15964 102.99646 7936 ft 142 kts 219°
2026-05-06 06:26 25.15178 102.98964 7759 ft 141 kts 219°
2026-05-06 06:27 25.14398 102.98284 7578 ft 140 kts 221°
2026-05-06 06:27 25.13620 102.97612 7412 ft 139 kts 220°
2026-05-06 06:27 25.12851 102.96951 7235 ft 138 kts 221°
2026-05-06 06:27 25.12090 102.96284 7056 ft 137 kts 221°
2026-05-06 06:28 25.11338 102.95624 6925 ft 133 kts 223°
2026-05-06 06:28 25.10710 102.95070 6921 ft 89 kts 218°
2026-05-06 06:28 25.10359 102.94763 6921 ft 35 kts 222°
2026-05-06 06:28 25.10243 102.94594 6923 ft 23 kts 245°
2026-05-06 06:29 25.10220 102.94539 6923 ft 4 kts 245°
2026-05-06 06:29 25.10207 102.94509 6923 ft 4 kts 246°
2026-05-06 06:29 25.10193 102.94474 6922 ft 5 kts 245°
2026-05-06 06:29 25.10170 102.94419 6923 ft 10 kts 245°
2026-05-06 06:30 25.10129 102.94334 6922 ft 14 kts 233°
2026-05-06 06:30 25.10050 102.94255 6923 ft 16 kts 219°
2026-05-06 06:30 25.10006 102.94193 6922 ft 8 kts 280°
2026-05-06 06:30 25.10018 102.94169 6922 ft 1 kts 308°
2026-05-06 06:31 25.10034 102.94148 6922 ft 6 kts 308°
2026-05-06 06:31 25.10082 102.94082 6922 ft 14 kts 308°
2026-05-06 06:31 25.10155 102.93982 6922 ft 18 kts 309°
2026-05-06 06:31 25.10218 102.93927 6922 ft 9 kts
2026-05-06 06:32 25.10289 102.93980 6922 ft 14 kts 38°
2026-05-06 06:32 25.10376 102.94056 6921 ft 13 kts 39°
2026-05-06 06:32 25.10445 102.94059 6922 ft 11 kts 316°
2026-05-06 06:32 25.10502 102.93980 6922 ft 14 kts 308°
2026-05-06 06:33 25.10570 102.93886 6921 ft 16 kts 308°
2026-05-06 06:33 25.10648 102.93779 6921 ft 18 kts 308°
2026-05-06 06:33 25.10732 102.93661 6921 ft 19 kts 308°
2026-05-06 06:33 25.10818 102.93542 6921 ft 20 kts 309°
2026-05-06 06:34 25.10906 102.93419 6921 ft 20 kts 308°
2026-05-06 06:34 25.10996 102.93296 6921 ft 20 kts 309°
2026-05-06 06:34 25.11086 102.93170 6921 ft 20 kts 308°
2026-05-06 06:34 25.11175 102.93047 6921 ft 20 kts 308°
2026-05-06 06:35 25.11227 102.92957 6921 ft 9 kts 269°
2026-05-06 06:35 25.11180 102.92897 6921 ft 11 kts 218°
2026-05-06 06:35 25.11106 102.92832 6921 ft 15 kts 218°
2026-05-06 06:35 25.11013 102.92752 6921 ft 18 kts 219°
2026-05-06 06:36 25.10904 102.92656 6921 ft 20 kts 219°
2026-05-06 06:36 25.10789 102.92556 6921 ft 17 kts 219°
2026-05-06 06:36 25.10726 102.92521 6921 ft 9 kts 166°
2026-05-06 06:36 25.10675 102.92576 6921 ft 11 kts 128°
2026-05-06 06:37 25.10610 102.92641 6921 ft 13 kts 153°
2026-05-06 06:37 25.10516 102.92691 6921 ft 15 kts 153°
2026-05-06 06:37 25.10419 102.92739 6921 ft 12 kts 159°
2026-05-06 06:37 25.10382 102.92791 6921 ft 9 kts 88°
2026-05-06 06:38 25.10386 102.92873 6921 ft 6 kts 87°
2026-05-06 06:38 25.10387 102.92911 6921 ft 1 kts 87°
2026-05-06 06:38 25.10387 102.92916 6921 ft 0 kts 87°